Home   Weather   Kuala Lumpur   Past weeks

Flag for Malaysia Past Weather in Kuala Lumpur, Malaysia — Yesterday and Last 2 Weeks

Now
91 °F

Broken clouds.


Feels Like: 97 °F
Forecast: 77 / 93 °F
Wind: 13 mph from West

Location: Sultan Abdul Aziz Shah-Subang

Current Time: Sep 30, 2016 at 6:02:42 PM

Latest Report: Sep 30, 2016 at 5:00 PM


Visibility: N/A

Pressure: 29.68 "Hg

Humidity: 49%

Dew Point: 70 °F

Location of Kuala LumpurLocation

Past Weather in Kuala Lumpur — Graph

°F

Kuala Lumpur Temperature Yesterday

Maximum temperature yesterday: 91 °F (at 2:00 PM)
Minimum temperature yesterday: 72 °F (at 6:00 AM)
Average temperature yesterday: 82 °F

High & Low Weather Summary for the Past Weeks

 TemperatureHumidityPressure
High95 °F (Sep 24, 2:00 PM)100% (Sep 16, 9:00 AM)29.89 "Hg (Sep 16, 9:00 AM)
Low72 °F (Sep 29, 6:00 AM)44% (Sep 24, 2:00 PM)29.65 "Hg (Sep 24, 4:00 PM)
Average84 °F73%29.79 "Hg
* Reported Sep 15 5:00 PM — Sep 30 5:00 PM, Kuala Lumpur, Weather by CustomWeather, © 2016

Note: Actual official high and low records may vary slightly from our data, if they occured in-between our weather recording intervals... More about our weather records

Advertising

Kuala Lumpur Weather History for the Previous 24 Hours

Scroll right to see more
 ConditionsComfort  
Time TempWeatherWind HumidityBarometerVisibility
5:00 PM
Fri, Sep 30
91 °FBroken clouds.13 mph49%29.68 "HgN/A
4:00 PM93 °FBroken clouds.10 mph49%29.71 "HgN/A
3:00 PM93 °FBroken clouds.8 mph49%29.74 "HgN/A
2:00 PM93 °FBroken clouds.7 mph49%29.77 "HgN/A
1:00 PM91 °FBroken clouds.7 mph56%29.80 "HgN/A
12:00 PM90 °FBroken clouds.8 mph59%29.80 "HgN/A
11:00 AM88 °FPartly sunny.8 mph62%29.83 "HgN/A
10:00 AM86 °FBroken clouds.6 mph70%29.83 "HgN/A
9:00 AM82 °FBroken clouds.5 mph74%29.83 "HgN/A
8:00 AM79 °FPartly cloudy.5 mph84%29.83 "HgN/A
7:00 AM79 °FPartly cloudy.3 mph84%29.80 "HgN/A
6:00 AM79 °FPartly cloudy.3 mph89%29.80 "Hg6 mi
5:00 AM79 °FPartly cloudy.6 mph89%29.80 "Hg6 mi
4:00 AM79 °FPartly cloudy.2 mph89%29.80 "Hg6 mi
3:00 AM79 °FPartly cloudy.3 mph89%29.80 "Hg6 mi
2:00 AM81 °FPartly cloudy.3 mph84%29.80 "Hg6 mi
1:00 AM81 °FPartly cloudy.2 mph84%29.83 "HgN/A
12:00 AM82 °FPartly cloudy.3 mph79%29.83 "HgN/A
11:00 PM
Thu, Sep 29
82 °FPartly cloudy.5 mph84%29.80 "HgN/A
10:00 PM82 °FPartly cloudy.3 mph84%29.80 "HgN/A
9:00 PM84 °FPartly cloudy.3 mph79%29.77 "HgN/A
8:00 PM84 °FBroken clouds.5 mph74%29.74 "HgN/A
7:00 PM86 °FBroken clouds.7 mph70%29.74 "HgN/A
6:00 PM88 °FPartly sunny.8 mph66%29.71 "HgN/A
Weather by CustomWeather, © 2016

See weather overviewHow to use our weather pages